Location: Bronschhofen
(47.4788°N, 9.0353°E)
Time: 19:35:42
(UTC+00:00)

Cosmos 1417 Rocket - Pass Details

Date: 20 May 2022
Orbit: 951 x 999 km, 83.0° (Epoch: 01 July)

Event Time Altitude Azimuth Distance (km) Brightness Sun altitude
Exits shadow 00:29:50 37° 181° (S) 1,488 4.9 -20.8°
Maximum altitude 00:32:33 84° 97° (E) 990 4.5 -20.7°
Drops below altitude 10° 00:38:48 10° 10° (N) 2,721 8.0 -20.3°
Sets 00:41:18 0° 10° (N) 3,665 9.0 -20.2°
